EWG9JL LGKR-EDDL

Flight info

Callsign EWG9JL
Flight time N/A
Altitude 32000
Route OLGAT DCT CRAYE/N0453F340 DCT GISAM DCT SIPAL DCT UNIPA DCT DEPET DCT RASTU DCT SIMBA DCT KEMES DCT TESDU DCT AMETU T852 TINSA T854 DOMUX DOMUX1A
Aircraft A321/M-SDE3FGHIRWY/LB1

Departure

Time 2026-05-05 10:45
Airport Corfu Ioannis Kapodistrias International Airport (LGKR)

Arrival

Time N/A
Airport Düsseldorf Airport (EDDL)
Time Latitude Longitude Altitude Speed Heading
2026-05-05 10:10 39.60831 19.91311 19 ft 0 kts 79°
2026-05-05 10:38 39.60830 19.91304 19 ft 4 kts 79°
2026-05-05 10:38 39.60825 19.91270 18 ft 4 kts 79°
2026-05-05 10:38 39.60820 19.91236 18 ft 3 kts 79°
2026-05-05 10:38 39.60815 19.91210 18 ft 4 kts 56°
2026-05-05 10:39 39.60798 19.91193 21 ft 4 kts 358°
2026-05-05 10:39 39.60773 19.91198 19 ft 4 kts 349°
2026-05-05 10:39 39.60768 19.91199 20 ft 0 kts 349°
2026-05-05 10:42 39.60797 19.91192 21 ft 6 kts 349°
2026-05-05 10:42 39.60857 19.91176 18 ft 11 kts 349°
2026-05-05 10:42 39.60942 19.91154 19 ft 13 kts 348°
2026-05-05 10:43 39.61033 19.91129 19 ft 13 kts 348°
2026-05-05 10:43 39.61126 19.91103 19 ft 14 kts 347°
2026-05-05 10:43 39.61210 19.91056 20 ft 13 kts 308°
2026-05-05 10:43 39.61243 19.90959 21 ft 9 kts 260°
2026-05-05 10:44 39.61202 19.90950 21 ft 0 kts 169°
2026-05-05 10:44 39.61023 19.91000 19 ft 63 kts 168°
2026-05-05 10:44 39.60364 19.91171 20 ft 127 kts 168°
2026-05-05 10:45 39.59320 19.91446 109 ft 172 kts 168°
2026-05-05 10:45 39.58175 19.91761 910 ft 166 kts 159°
2026-05-05 10:45 39.57305 19.92813 1417 ft 185 kts 118°
2026-05-05 10:45 39.57191 19.94535 1633 ft 206 kts 74°
2026-05-05 10:46 39.58079 19.95987 2037 ft 214 kts 31°
2026-05-05 10:46 39.59508 19.96285 2484 ft 216 kts 346°
2026-05-05 10:46 39.60799 19.95335 2958 ft 217 kts 316°
2026-05-05 10:46 39.61842 19.93914 3445 ft 219 kts 312°
2026-05-05 10:47 39.62911 19.92359 3588 ft 240 kts 310°
2026-05-05 10:47 39.64046 19.90668 3802 ft 261 kts 310°
2026-05-05 10:47 39.65251 19.88867 4341 ft 267 kts 310°
2026-05-05 10:47 39.66481 19.87029 4973 ft 271 kts 310°
2026-05-05 10:48 39.67726 19.85177 5623 ft 273 kts 310°
2026-05-05 10:48 39.68984 19.83312 6276 ft 275 kts 311°
2026-05-05 10:48 39.70253 19.81430 6907 ft 278 kts 311°
2026-05-05 10:48 39.71529 19.79541 7511 ft 279 kts 311°
2026-05-05 10:49 39.72817 19.77631 8099 ft 283 kts 311°
2026-05-05 10:49 39.74115 19.75704 8731 ft 284 kts 312°
2026-05-05 10:49 39.75423 19.73762 9357 ft 287 kts 312°
2026-05-05 10:49 39.76742 19.71803 9968 ft 289 kts 312°
2026-05-05 10:50 39.78081 19.69814 10348 ft 300 kts 312°
2026-05-05 10:50 39.79501 19.67706 10472 ft 319 kts 312°
2026-05-05 10:50 39.81003 19.65472 10601 ft 336 kts 312°
2026-05-05 10:50 39.82574 19.63131 10828 ft 348 kts 312°
2026-05-05 10:51 39.84174 19.60739 11302 ft 352 kts 311°
2026-05-05 10:51 39.85786 19.58323 11832 ft 354 kts 311°
2026-05-05 10:51 39.87408 19.55896 12360 ft 356 kts 311°
2026-05-05 10:51 39.89039 19.53456 12899 ft 358 kts 311°
2026-05-05 10:52 39.90680 19.51001 13449 ft 360 kts 312°
2026-05-05 10:52 39.92329 19.48534 13981 ft 362 kts 311°
2026-05-05 10:52 39.93987 19.46053 14456 ft 364 kts 311°
2026-05-05 10:52 39.95656 19.43551 14930 ft 366 kts 311°
2026-05-05 10:53 39.97328 19.41043 15399 ft 367 kts 311°
2026-05-05 10:53 39.99010 19.38522 15861 ft 369 kts 311°
2026-05-05 10:53 40.00699 19.35985 16340 ft 371 kts 311°
2026-05-05 10:53 40.02396 19.33431 16805 ft 373 kts 311°
2026-05-05 10:54 40.04075 19.30896 17265 ft 375 kts 311°
2026-05-05 10:54 40.05786 19.28312 17727 ft 377 kts 311°
2026-05-05 10:54 40.07502 19.25719 18163 ft 379 kts 311°
2026-05-05 10:54 40.09226 19.23110 18562 ft 380 kts 311°
2026-05-05 10:55 40.10961 19.20489 18936 ft 382 kts 311°
2026-05-05 10:55 40.12702 19.17867 19332 ft 382 kts 311°
2026-05-05 10:55 40.14446 19.15236 19709 ft 384 kts 311°
2026-05-05 10:55 40.16192 19.12591 20098 ft 385 kts 311°
2026-05-05 10:56 40.17941 19.09934 20480 ft 386 kts 311°
2026-05-05 10:56 40.19691 19.07273 20859 ft 387 kts 311°
2026-05-05 10:56 40.20879 19.05466 21109 ft 387 kts 311°
2026-05-05 10:56 40.22640 19.02791 21479 ft 389 kts 312°
2026-05-05 10:57 40.24591 19.00334 21830 ft 390 kts 321°
2026-05-05 10:57 40.26862 18.98383 22190 ft 392 kts 331°
2026-05-05 10:57 40.29284 18.96746 22554 ft 393 kts 332°
2026-05-05 10:57 40.31716 18.95104 22909 ft 394 kts 332°
2026-05-05 10:58 40.34124 18.93472 23246 ft 395 kts 331°
2026-05-05 10:58 40.36571 18.91807 23602 ft 397 kts 331°
2026-05-05 10:58 40.39022 18.90136 23905 ft 398 kts 331°
2026-05-05 10:58 40.41515 18.88435 24191 ft 399 kts 331°
2026-05-05 10:59 40.43947 18.86773 24480 ft 400 kts 331°
2026-05-05 10:59 40.46418 18.85083 24763 ft 401 kts 331°
2026-05-05 10:59 40.48900 18.83384 25037 ft 403 kts 331°
2026-05-05 10:59 40.51388 18.81684 25316 ft 404 kts 331°
2026-05-05 11:00 40.53884 18.79980 25598 ft 405 kts 330°
2026-05-05 11:00 40.56386 18.78269 25873 ft 406 kts 330°
2026-05-05 11:00 40.58892 18.76550 26140 ft 407 kts 330°
2026-05-05 11:00 40.61411 18.74821 26401 ft 409 kts 330°
2026-05-05 11:01 40.63936 18.73087 26656 ft 410 kts 330°
2026-05-05 11:01 40.66470 18.71346 26918 ft 412 kts 330°
2026-05-05 11:01 40.69015 18.69597 27176 ft 413 kts 330°
2026-05-05 11:01 40.71561 18.67846 27429 ft 414 kts 330°
2026-05-05 11:02 40.74120 18.66086 27676 ft 415 kts 330°
2026-05-05 11:02 40.76690 18.64320 27926 ft 417 kts 330°
2026-05-05 11:02 40.79262 18.62551 28160 ft 418 kts 330°
2026-05-05 11:02 40.81847 18.60767 28397 ft 419 kts 330°
2026-05-05 11:03 40.84435 18.58975 28617 ft 420 kts 330°
2026-05-05 11:03 40.87029 18.57174 28824 ft 422 kts 329°
2026-05-05 11:03 40.89633 18.55368 29022 ft 423 kts 329°
2026-05-05 11:03 40.92244 18.53557 29222 ft 424 kts 329°
2026-05-05 11:04 40.94860 18.51744 29410 ft 425 kts 329°
2026-05-05 11:04 40.97476 18.49929 29681 ft 424 kts 329°
2026-05-05 11:04 41.00086 18.48116 29959 ft 423 kts 329°
2026-05-05 11:04 41.02684 18.46307 30237 ft 422 kts 329°
2026-05-05 11:05 41.05281 18.44497 30479 ft 420 kts 329°
2026-05-05 11:05 41.07864 18.42699 30716 ft 419 kts 329°
2026-05-05 11:05 41.10441 18.40904 30966 ft 417 kts 329°
2026-05-05 11:05 41.13003 18.39118 31219 ft 415 kts 329°
2026-05-05 11:06 41.15557 18.37335 31476 ft 414 kts 329°
2026-05-05 11:06 41.18094 18.35560 31724 ft 412 kts 328°
2026-05-05 11:06 41.20628 18.33788 31973 ft 410 kts 328°
2026-05-05 11:06 41.23119 18.32046 32217 ft 409 kts 328°
2026-05-05 11:07 41.25631 18.30285 32455 ft 407 kts 328°
2026-05-05 11:07 41.28127 18.28531 32697 ft 406 kts 328°
2026-05-05 11:07 41.30622 18.26782 32935 ft 404 kts 328°
2026-05-05 11:07 41.33105 18.25040 33172 ft 403 kts 328°
2026-05-05 11:08 41.35580 18.23299 33403 ft 401 kts 328°
2026-05-05 11:08 41.38042 18.21571 33636 ft 400 kts 328°
2026-05-05 11:08 41.40501 18.19846 33854 ft 399 kts 328°
2026-05-05 11:08 41.42950 18.18117 34057 ft 398 kts 327°
2026-05-05 11:09 41.45387 18.16384 34111 ft 397 kts 327°
2026-05-05 11:09 41.50246 18.12911 34107 ft 394 kts 324°
2026-05-05 11:10 41.54821 18.08913 34109 ft 393 kts 322°
2026-05-05 11:10 41.59381 18.04872 34110 ft 393 kts 322°
2026-05-05 11:11 41.63941 18.00814 34114 ft 394 kts 322°
2026-05-05 11:11 41.68503 17.96748 34120 ft 394 kts 322°
2026-05-05 11:12 41.73077 17.92678 34117 ft 395 kts 322°
2026-05-05 11:12 41.77648 17.88605 34117 ft 395 kts 322°
2026-05-05 11:13 41.82194 17.84546 34120 ft 395 kts 322°
2026-05-05 11:13 41.86765 17.80448 34119 ft 395 kts 321°
2026-05-05 11:14 41.91355 17.76368 34117 ft 398 kts 325°
2026-05-05 11:14 41.96469 17.73328 34119 ft 404 kts 332°
2026-05-05 11:15 42.01677 17.70462 34119 ft 405 kts 332°
2026-05-05 11:15 42.06893 17.67570 34106 ft 406 kts 332°
2026-05-05 11:16 42.12121 17.64666 34102 ft 407 kts 332°
2026-05-05 11:16 42.17362 17.61757 34100 ft 408 kts 332°
2026-05-05 11:17 42.22625 17.58833 34104 ft 410 kts 332°
2026-05-05 11:17 42.27905 17.55897 34104 ft 411 kts 332°
2026-05-05 11:18 42.33201 17.52953 34107 ft 412 kts 332°
2026-05-05 11:18 42.38512 17.49982 34110 ft 413 kts 332°
2026-05-05 11:19 42.43828 17.46992 34114 ft 414 kts 332°
2026-05-05 11:19 42.49164 17.43997 34113 ft 415 kts 332°
2026-05-05 11:20 42.54513 17.40994 34114 ft 416 kts 332°
2026-05-05 11:20 42.59871 17.37978 34113 ft 418 kts 332°
2026-05-05 11:21 42.65240 17.34942 34113 ft 418 kts 332°
2026-05-05 11:21 42.70616 17.31902 34111 ft 419 kts 332°
2026-05-05 11:22 42.75967 17.28880 34113 ft 419 kts 332°
2026-05-05 11:22 42.81357 17.25821 34113 ft 420 kts 332°
2026-05-05 11:23 42.86753 17.22748 34115 ft 421 kts 332°
2026-05-05 11:23 42.92164 17.19668 34109 ft 422 kts 332°
2026-05-05 11:24 42.97583 17.16578 34104 ft 423 kts 332°
2026-05-05 11:24 43.03019 17.13475 34097 ft 424 kts 332°
2026-05-05 11:25 43.08474 17.10342 34101 ft 425 kts 332°
2026-05-05 11:25 43.13937 17.07200 34104 ft 427 kts 332°
2026-05-05 11:26 43.19329 17.03822 34099 ft 426 kts 330°
2026-05-05 11:26 43.24670 17.00247 34093 ft 428 kts 329°
2026-05-05 11:27 43.30031 16.96666 34088 ft 429 kts 330°
2026-05-05 11:27 43.35426 16.93114 34086 ft 431 kts 330°
2026-05-05 11:28 43.40845 16.89569 34082 ft 432 kts 331°
2026-05-05 11:28 43.46281 16.86003 34080 ft 433 kts 331°
2026-05-05 11:29 43.51729 16.82418 34086 ft 435 kts 331°
2026-05-05 11:29 43.57194 16.78802 34084 ft 436 kts 331°
2026-05-05 11:30 43.62665 16.75176 34093 ft 437 kts 331°
2026-05-05 11:30 43.68145 16.71542 34092 ft 437 kts 331°
2026-05-05 11:31 43.73634 16.67900 34093 ft 437 kts 331°
2026-05-05 11:31 43.79119 16.64249 34101 ft 438 kts 331°
2026-05-05 11:32 43.84602 16.60583 34094 ft 438 kts 331°
2026-05-05 11:32 43.90088 16.56909 34089 ft 438 kts 331°
2026-05-05 11:33 43.95548 16.53254 34088 ft 438 kts 331°
2026-05-05 11:33 44.01039 16.49562 34081 ft 439 kts 331°
2026-05-05 11:34 44.06476 16.45725 34078 ft 438 kts 328°
2026-05-05 11:34 44.11769 16.41527 34068 ft 438 kts 327°
2026-05-05 11:35 44.17036 16.37263 34074 ft 439 kts 327°
2026-05-05 11:35 44.22352 16.33044 34055 ft 440 kts 327°
2026-05-05 11:36 44.27664 16.28885 34069 ft 441 kts 327°
2026-05-05 11:36 44.33008 16.24687 34069 ft 441 kts 328°
2026-05-05 11:37 44.38352 16.20463 34063 ft 442 kts 327°
2026-05-05 11:37 44.43706 16.16214 34061 ft 442 kts 327°
2026-05-05 11:38 44.49063 16.11964 34065 ft 443 kts 327°
2026-05-05 11:38 44.54432 16.07700 34063 ft 444 kts 327°
2026-05-05 11:39 44.59801 16.03426 34062 ft 444 kts 328°
2026-05-05 11:39 44.65168 15.99145 34061 ft 444 kts 327°
2026-05-05 11:40 44.70523 15.94809 34059 ft 444 kts 326°
2026-05-05 11:40 44.74900 15.91061 34059 ft 443 kts 325°
2026-05-05 11:41 44.80141 15.86477 34063 ft 443 kts 325°
2026-05-05 11:41 44.85393 15.81922 34057 ft 444 kts 326°
2026-05-05 11:42 44.90670 15.77387 34056 ft 444 kts 326°
2026-05-05 11:42 44.95961 15.72869 34058 ft 445 kts 327°
2026-05-05 11:43 45.01384 15.68623 34054 ft 446 kts 329°
2026-05-05 11:43 45.06874 15.64496 34049 ft 447 kts 329°
2026-05-05 11:44 45.12343 15.60303 34051 ft 447 kts 329°
2026-05-05 11:44 45.17791 15.56043 34046 ft 447 kts 328°
2026-05-05 11:45 45.23204 15.51787 34047 ft 448 kts 329°
2026-05-05 11:45 45.28662 15.47504 34049 ft 448 kts 329°
2026-05-05 11:46 45.34122 15.43215 34053 ft 448 kts 329°
2026-05-05 11:46 45.39586 15.38919 34057 ft 448 kts 329°
2026-05-05 11:47 45.45043 15.34621 34060 ft 448 kts 329°
2026-05-05 11:47 45.50501 15.30311 34057 ft 448 kts 328°
2026-05-05 11:48 45.58683 15.23825 34062 ft 449 kts 328°
2026-05-05 11:48 45.64138 15.19483 34057 ft 449 kts 328°
2026-05-05 11:49 45.69601 15.15128 34058 ft 450 kts 328°
2026-05-05 11:49 45.75066 15.10756 34060 ft 450 kts 328°
2026-05-05 11:50 45.80541 15.06373 34053 ft 451 kts 328°
2026-05-05 11:50 45.85985 15.02006 34051 ft 451 kts 328°
2026-05-05 11:51 45.91462 14.97597 34048 ft 452 kts 328°
2026-05-05 11:51 45.96958 14.93167 34049 ft 453 kts 328°
2026-05-05 11:52 46.02455 14.88730 34046 ft 453 kts 328°
2026-05-05 11:52 46.07958 14.84278 34034 ft 454 kts 328°
2026-05-05 11:53 46.13461 14.79816 34031 ft 454 kts 327°
2026-05-05 11:53 46.18971 14.75321 34034 ft 456 kts 327°
2026-05-05 11:54 46.24496 14.70820 34034 ft 457 kts 327°
2026-05-05 11:54 46.30038 14.66310 34032 ft 457 kts 327°
2026-05-05 11:55 46.35557 14.61787 34041 ft 457 kts 327°
2026-05-05 11:55 46.41082 14.57246 34038 ft 457 kts 327°
2026-05-05 11:56 46.46606 14.52699 34010 ft 456 kts 328°
2026-05-05 11:56 46.52120 14.48153 34000 ft 455 kts 327°
2026-05-05 11:57 46.57625 14.43602 33997 ft 456 kts 327°
2026-05-05 11:57 46.63138 14.39028 34000 ft 455 kts 327°
2026-05-05 11:58 46.68627 14.34454 34003 ft 455 kts 327°
2026-05-05 11:58 46.74129 14.29869 34000 ft 455 kts 328°
2026-05-05 11:59 46.79630 14.25296 33992 ft 455 kts 328°
2026-05-05 11:59 46.85131 14.20708 33981 ft 455 kts 327°
2026-05-05 12:00 46.90600 14.16118 33969 ft 456 kts 327°
2026-05-05 12:00 46.96138 14.11448 33953 ft 457 kts 327°
2026-05-05 12:01 47.01662 14.06785 33946 ft 458 kts 327°
2026-05-05 12:01 47.07149 14.02148 33942 ft 459 kts 327°
2026-05-05 12:02 47.12678 13.97461 33935 ft 459 kts 327°
2026-05-05 12:02 47.18211 13.92771 33925 ft 459 kts 327°
2026-05-05 12:03 47.23737 13.88077 33916 ft 459 kts 327°
2026-05-05 12:03 47.29262 13.83369 33905 ft 458 kts 327°
2026-05-05 12:04 47.34780 13.78653 33901 ft 458 kts 327°
2026-05-05 12:04 47.40280 13.73934 33895 ft 457 kts 327°
2026-05-05 12:05 47.45758 13.69216 33876 ft 456 kts 327°
2026-05-05 12:05 47.51236 13.64501 33869 ft 455 kts 327°
2026-05-05 12:06 47.56708 13.59789 33863 ft 455 kts 327°
2026-05-05 12:06 47.62167 13.55063 33851 ft 454 kts 327°
2026-05-05 12:07 47.67609 13.50335 33840 ft 453 kts 327°
2026-05-05 12:07 47.73053 13.45595 33835 ft 453 kts 326°
2026-05-05 12:08 47.78491 13.40855 33828 ft 454 kts 327°
2026-05-05 12:08 47.83943 13.36095 33826 ft 454 kts 326°
2026-05-05 12:09 47.89384 13.31315 33827 ft 454 kts 326°
2026-05-05 12:09 47.94824 13.26528 33829 ft 454 kts 326°
2026-05-05 12:10 48.00275 13.21739 33827 ft 454 kts 327°
2026-05-05 12:10 48.05720 13.16942 33827 ft 454 kts 326°
2026-05-05 12:11 48.11118 13.12164 33827 ft 454 kts 326°
2026-05-05 12:11 48.16559 13.07328 33826 ft 454 kts 326°
2026-05-05 12:12 48.21981 13.02480 33826 ft 453 kts 324°
2026-05-05 12:12 48.26844 12.96567 33826 ft 449 kts 315°
2026-05-05 12:13 48.31547 12.90383 33824 ft 449 kts 316°
2026-05-05 12:13 48.36254 12.84202 33822 ft 449 kts 316°
2026-05-05 12:14 48.40957 12.78012 33824 ft 449 kts 315°
2026-05-05 12:14 48.45650 12.71800 33821 ft 449 kts 315°
2026-05-05 12:15 48.50338 12.65568 33818 ft 449 kts 315°
2026-05-05 12:15 48.55027 12.59323 33818 ft 449 kts 315°
2026-05-05 12:16 48.59710 12.53083 33821 ft 449 kts 315°
2026-05-05 12:16 48.64367 12.46866 33816 ft 449 kts 315°
2026-05-05 12:17 48.69049 12.40595 33818 ft 450 kts 315°
2026-05-05 12:17 48.73727 12.34303 33819 ft 450 kts 314°
2026-05-05 12:18 48.78415 12.27996 33818 ft 450 kts 314°
2026-05-05 12:18 48.83101 12.21679 33815 ft 451 kts 314°
2026-05-05 12:19 48.87775 12.15341 33815 ft 451 kts 314°
2026-05-05 12:19 48.92450 12.08988 33808 ft 451 kts 314°
2026-05-05 12:20 48.97127 12.02622 33811 ft 451 kts 314°
2026-05-05 12:20 49.01806 11.96231 33832 ft 451 kts 314°
2026-05-05 12:21 49.06478 11.89829 33827 ft 451 kts 314°
2026-05-05 12:21 49.11148 11.83428 33834 ft 451 kts 314°
2026-05-05 12:22 49.15817 11.77016 33833 ft 451 kts 314°
2026-05-05 12:22 49.20482 11.70592 33836 ft 451 kts 314°
2026-05-05 12:23 49.25134 11.64158 33831 ft 451 kts 313°
2026-05-05 12:23 49.29787 11.57703 33833 ft 451 kts 313°
2026-05-05 12:24 49.33649 11.52331 33831 ft 451 kts 313°
2026-05-05 12:24 49.39052 11.44803 33831 ft 451 kts 313°
2026-05-05 12:25 49.42942 11.39364 33840 ft 452 kts 313°
2026-05-05 12:25 49.47594 11.32842 33836 ft 452 kts 313°
2026-05-05 12:26 49.52227 11.26333 33838 ft 451 kts 313°
2026-05-05 12:26 49.56864 11.19905 33837 ft 452 kts 315°
2026-05-05 12:27 49.61754 11.13784 33833 ft 453 kts 317°
2026-05-05 12:27 49.66731 11.07789 33839 ft 453 kts 317°
2026-05-05 12:28 49.71662 11.01735 33840 ft 452 kts 316°
2026-05-05 12:28 49.76553 10.95615 33844 ft 452 kts 316°
2026-05-05 12:29 49.81419 10.89470 33846 ft 452 kts 316°
2026-05-05 12:29 49.86290 10.83325 33848 ft 451 kts 316°
2026-05-05 12:30 49.91159 10.77180 33850 ft 451 kts 316°
2026-05-05 12:30 49.96021 10.71022 33854 ft 451 kts 316°
2026-05-05 12:31 50.00876 10.64855 33852 ft 451 kts 316°
2026-05-05 12:31 50.05732 10.58679 33854 ft 451 kts 315°
2026-05-05 12:32 50.10580 10.52496 33861 ft 451 kts 315°
2026-05-05 12:32 50.15431 10.46303 33863 ft 451 kts 315°
2026-05-05 12:33 50.20181 10.39954 33862 ft 446 kts 308°
2026-05-05 12:33 50.23907 10.32374 33867 ft 439 kts 299°
2026-05-05 12:34 50.27407 10.24549 33868 ft 439 kts 299°
2026-05-05 12:34 50.30912 10.16734 33866 ft 439 kts 299°
2026-05-05 12:35 50.34407 10.08908 33868 ft 439 kts 299°
2026-05-05 12:35 50.37889 10.01062 33872 ft 438 kts 299°
2026-05-05 12:36 50.41355 9.93220 33861 ft 438 kts 299°
2026-05-05 12:36 50.44803 9.85393 33863 ft 438 kts 299°
2026-05-05 12:37 50.48268 9.77516 33862 ft 438 kts 299°
2026-05-05 12:37 50.51731 9.69637 33867 ft 438 kts 299°
2026-05-05 12:38 50.55181 9.61738 33871 ft 438 kts 298°
2026-05-05 12:38 50.58616 9.53826 33833 ft 438 kts 298°
2026-05-05 12:39 50.60344 9.49848 33065 ft 441 kts 298°
2026-05-05 12:39 50.62070 9.45892 32614 ft 435 kts 298°
2026-05-05 12:39 50.63770 9.41991 32129 ft 430 kts 298°
2026-05-05 12:39 50.65449 9.38117 31644 ft 426 kts 298°
2026-05-05 12:40 50.67110 9.34273 31161 ft 422 kts 298°
2026-05-05 12:40 50.68753 9.30472 30678 ft 418 kts 298°
2026-05-05 12:40 50.70379 9.26694 30200 ft 414 kts 298°
2026-05-05 12:40 50.71990 9.22938 29693 ft 411 kts 299°
2026-05-05 12:41 50.73582 9.19226 29222 ft 406 kts 299°
2026-05-05 12:41 50.75158 9.15555 28750 ft 401 kts 299°
2026-05-05 12:41 50.76713 9.11930 28298 ft 397 kts 299°
2026-05-05 12:41 50.78246 9.08348 27846 ft 392 kts 299°
2026-05-05 12:42 50.79772 9.04785 27415 ft 388 kts 300°
2026-05-05 12:42 50.81274 9.01267 26985 ft 384 kts 300°
2026-05-05 12:42 50.82758 8.97780 26579 ft 380 kts 300°
2026-05-05 12:42 50.84263 8.94364 26169 ft 377 kts 302°
2026-05-05 12:43 50.85847 8.91079 25766 ft 374 kts 304°
2026-05-05 12:43 50.87474 8.87882 25384 ft 371 kts 306°
2026-05-05 12:43 50.89101 8.84739 25000 ft 368 kts 306°
2026-05-05 12:43 50.90715 8.81611 24626 ft 366 kts 306°
2026-05-05 12:44 50.92309 8.78489 24256 ft 364 kts 306°
2026-05-05 12:44 50.93888 8.75367 23889 ft 362 kts 305°
2026-05-05 12:44 50.95453 8.72240 23495 ft 361 kts 305°
2026-05-05 12:44 50.96982 8.69156 23080 ft 359 kts 305°
2026-05-05 12:45 50.98542 8.66011 22677 ft 357 kts 305°
2026-05-05 12:45 51.00077 8.62918 22290 ft 355 kts 305°
2026-05-05 12:45 51.01725 8.60011 21900 ft 355 kts 315°
2026-05-05 12:45 51.03663 8.57592 21498 ft 355 kts 324°
2026-05-05 12:46 51.05726 8.55464 21104 ft 353 kts 324°
2026-05-05 12:46 51.07754 8.53367 20697 ft 351 kts 324°
2026-05-05 12:46 51.09792 8.51261 20296 ft 348 kts 324°
2026-05-05 12:46 51.11817 8.49154 19892 ft 346 kts 324°
2026-05-05 12:47 51.13817 8.47069 19487 ft 344 kts 324°
2026-05-05 12:47 51.15812 8.44988 19083 ft 341 kts 324°
2026-05-05 12:47 51.17794 8.42920 18672 ft 339 kts 325°
2026-05-05 12:47 51.19763 8.40867 18282 ft 337 kts 325°
2026-05-05 12:48 51.21722 8.38823 17844 ft 336 kts 325°
2026-05-05 12:48 51.23664 8.36794 17434 ft 332 kts 325°
2026-05-05 12:48 51.25592 8.34776 17039 ft 329 kts 324°
2026-05-05 12:48 51.27501 8.32772 16643 ft 327 kts 324°
2026-05-05 12:49 51.29392 8.30786 16250 ft 325 kts 324°
2026-05-05 12:49 51.31271 8.28808 15865 ft 323 kts 324°
2026-05-05 12:49 51.33142 8.26836 15473 ft 321 kts 324°
2026-05-05 12:49 51.35002 8.24876 15095 ft 319 kts 324°
2026-05-05 12:50 51.36852 8.22930 14713 ft 317 kts 324°
2026-05-05 12:50 51.38690 8.20995 14336 ft 315 kts 324°
2026-05-05 12:50 51.40519 8.19064 13948 ft 314 kts 324°
2026-05-05 12:50 51.42335 8.17148 13563 ft 313 kts 324°
2026-05-05 12:51 51.44150 8.15239 13136 ft 311 kts 324°
2026-05-05 12:51 51.45952 8.13342 12743 ft 309 kts 324°